Time,TemperatureF,DewpointF,PressureIn,WindDirection,WindDirectionDegrees,WindSpeedMPH,WindSpeedGustMPH,Humidity,HourlyPrecipIn,Conditions,Clouds,dailyrainin,SoftwareType,DateUTC
2013-04-12 00:00:00,65.4,57.4,29.61,SE,138,0.0,6.0,75,0.00,,,0.00,WUHU216DAVISVP2,2013-04-12 04:00:00,
2013-04-12 00:05:00,65.1,57.5,29.61,East,81,0.0,5.0,76,0.00,,,0.00,WUHU216DAVISVP2,2013-04-12 04:05:00,
2013-04-12 00:10:00,64.9,57.3,29.61,North,354,0.0,5.0,76,0.00,,,0.00,WUHU216DAVISVP2,2013-04-12 04:10:00,
2013-04-12 00:15:00,64.8,57.2,29.61,SE,139,2.0,7.0,76,0.00,,,0.00,WUHU216DAVISVP2,2013-04-12 04:15:00,
2013-04-12 00:20:00,64.7,57.4,29.62,SSE,152,0.0,7.0,77,0.00,,,0.00,WUHU216DAVISVP2,2013-04-12 04:20:00,
2013-04-12 00:25:00,64.8,57.5,29.61,ESE,112,0.0,7.0,77,0.00,,,0.00,WUHU216DAVISVP2,2013-04-12 04:25:00,
2013-04-12 00:30:00,64.6,57.3,29.61,ESE,118,4.0,5.0,77,0.00,,,0.00,WUHU216DAVISVP2,2013-04-12 04:30:00,
2013-04-12 00:35:00,64.7,57.4,29.61,SW,221,3.0,5.0,77,0.00,,,0.00,WUHU216DAVISVP2,2013-04-12 04:35:00,
2013-04-12 00:40:00,64.6,57.3,29.61,SE,141,0.0,5.0,77,0.00,,,0.00,WUHU216DAVISVP2,2013-04-12 04:40:00,
2013-04-12 00:45:00,64.5,57.2,29.60,ENE,75,0.0,5.0,77,0.00,,,0.00,WUHU216DAVISVP2,2013-04-12 04:45:00,
2013-04-12 00:50:00,64.5,57.2,29.61,SSE,154,2.0,4.0,77,0.00,,,0.00,WUHU216DAVISVP2,2013-04-12 04:50:00,
2013-04-12 00:55:00,64.3,57.0,29.61,SE,137,4.0,4.0,77,0.00,,,0.00,WUHU216DAVISVP2,2013-04-12 04:55:00,
2013-04-12 01:00:00,64.1,57.2,29.61,SE,135,1.0,7.0,78,0.00,,,0.00,WUHU216DAVISVP2,2013-04-12 05:00:00,
2013-04-12 01:05:00,64.0,57.1,29.61,SSE,148,5.0,7.0,78,0.00,,,0.00,WUHU216DAVISVP2,2013-04-12 05:05:00,
2013-04-12 01:10:00,63.9,57.0,29.60,SSE,165,0.0,7.0,78,0.00,,,0.00,WUHU216DAVISVP2,2013-04-12 05:10:00,
2013-04-12 01:15:00,63.8,56.9,29.60,SSW,199,0.0,6.0,78,0.00,,,0.00,WUHU216DAVISVP2,2013-04-12 05:15:00,
2013-04-12 01:20:00,63.8,56.9,29.60,SSW,199,1.0,6.0,78,0.00,,,0.00,WUHU216DAVISVP2,2013-04-12 05:20:00,
2013-04-12 01:25:00,63.7,56.8,29.60,ENE,78,1.0,5.0,78,0.00,,,0.00,WUHU216DAVISVP2,2013-04-12 05:25:00,
2013-04-12 01:30:00,63.6,56.7,29.60,South,185,4.0,5.0,78,0.00,,,0.00,WUHU216DAVISVP2,2013-04-12 05:30:00,
2013-04-12 01:35:00,63.6,56.7,29.59,East,88,2.0,5.0,78,0.00,,,0.00,WUHU216DAVISVP2,2013-04-12 05:35:00,
2013-04-12 01:40:00,63.6,56.7,29.59,East,89,0.0,5.0,78,0.00,,,0.00,WUHU216DAVISVP2,2013-04-12 05:40:00,
2013-04-12 01:45:00,63.5,56.6,29.59,East,92,0.0,5.0,78,0.00,,,0.00,WUHU216DAVISVP2,2013-04-12 05:45:00,
2013-04-12 01:50:00,63.5,56.6,29.59,SE,143,0.0,5.0,78,0.00,,,0.00,WUHU216DAVISVP2,2013-04-12 05:50:00,
2013-04-12 01:55:00,63.5,56.5,29.59,East,96,3.0,5.0,78,0.00,,,0.00,WUHU216DAVISVP2,2013-04-12 05:55:00,
2013-04-12 02:00:00,63.4,56.8,29.59,ENE,77,0.0,5.0,79,0.00,,,0.00,WUHU216DAVISVP2,2013-04-12 06:00:00,
2013-04-12 02:05:00,63.3,56.7,29.58,East,84,0.0,5.0,79,0.00,,,0.00,WUHU216DAVISVP2,2013-04-12 06:05:00,
2013-04-12 02:10:00,63.1,56.5,29.58,East,84,0.0,5.0,79,0.00,,,0.00,WUHU216DAVISVP2,2013-04-12 06:10:00,
2013-04-12 02:15:00,62.9,56.3,29.58,East,84,0.0,3.0,79,0.00,,,0.00,WUHU216DAVISVP2,2013-04-12 06:15:00,
2013-04-12 02:20:00,62.9,56.6,29.58,NW,312,1.0,3.0,80,0.00,,,0.00,WUHU216DAVISVP2,2013-04-12 06:20:00,
2013-04-12 02:25:00,62.8,56.3,29.57,WNW,283,0.0,3.0,79,0.00,,,0.00,WUHU216DAVISVP2,2013-04-12 06:25:00,
2013-04-12 02:30:00,62.6,56.4,29.57,WNW,283,0.0,3.0,80,0.00,,,0.00,WUHU216DAVISVP2,2013-04-12 06:30:00,
2013-04-12 02:35:00,62.4,56.2,29.57,WNW,283,0.0,3.0,80,0.00,,,0.00,WUHU216DAVISVP2,2013-04-12 06:35:00,
2013-04-12 02:40:00,62.1,56.3,29.57,WNW,283,2.0,2.0,81,0.00,,,0.00,WUHU216DAVISVP2,2013-04-12 06:40:00,
2013-04-12 02:45:00,62.0,56.2,29.57,WNW,297,0.0,4.0,81,0.00,,,0.00,WUHU216DAVISVP2,2013-04-12 06:45:00,
2013-04-12 02:50:00,62.1,56.6,29.57,WNW,297,0.0,4.0,82,0.00,,,0.00,WUHU216DAVISVP2,2013-04-12 06:50:00,
2013-04-12 02:55:00,62.2,56.7,29.57,WNW,297,0.0,4.0,82,0.00,,,0.00,WUHU216DAVISVP2,2013-04-12 06:55:00,
2013-04-12 03:00:00,62.4,57.2,29.57,South,180,4.0,7.0,83,0.01,,,0.01,WUHU216DAVISVP2,2013-04-12 07:00:00,
2013-04-12 03:05:00,62.8,57.6,29.57,SSE,149,2.0,7.0,83,0.01,,,0.01,WUHU216DAVISVP2,2013-04-12 07:05:00,
2013-04-12 03:10:00,62.9,57.7,29.57,ENE,68,5.0,7.0,83,0.02,,,0.02,WUHU216DAVISVP2,2013-04-12 07:10:00,
2013-04-12 03:15:00,62.8,57.9,29.57,SSE,168,0.0,7.0,84,0.04,,,0.04,WUHU216DAVISVP2,2013-04-12 07:15:00,
2013-04-12 03:20:00,62.5,57.9,29.57,SSE,168,7.0,8.0,85,0.05,,,0.05,WUHU216DAVISVP2,2013-04-12 07:20:00,
2013-04-12 03:25:00,62.3,58.1,29.56,SE,139,1.0,8.0,86,0.05,,,0.06,WUHU216DAVISVP2,2013-04-12 07:25:00,
2013-04-12 03:30:00,62.0,57.8,29.56,ESE,121,0.0,8.0,86,0.06,,,0.06,WUHU216DAVISVP2,2013-04-12 07:30:00,
2013-04-12 03:35:00,61.8,58.2,29.56,SSE,155,0.0,8.0,88,0.07,,,0.07,WUHU216DAVISVP2,2013-04-12 07:35:00,
2013-04-12 03:40:00,61.5,58.2,29.55,SSE,155,0.0,7.0,89,0.08,,,0.08,WUHU216DAVISVP2,2013-04-12 07:40:00,
2013-04-12 03:45:00,61.1,58.1,29.54,SSE,155,0.0,7.0,90,0.08,,,0.08,WUHU216DAVISVP2,2013-04-12 07:45:00,
2013-04-12 03:50:00,60.9,58.2,29.54,SSE,154,0.0,2.0,91,0.09,,,0.09,WUHU216DAVISVP2,2013-04-12 07:50:00,
2013-04-12 03:55:00,60.6,58.3,29.53,East,91,0.0,3.0,92,0.10,,,0.10,WUHU216DAVISVP2,2013-04-12 07:55:00,
2013-04-12 04:00:00,60.3,58.0,29.53,East,91,1.0,3.0,92,0.09,,,0.10,WUHU216DAVISVP2,2013-04-12 08:00:00,
2013-04-12 04:05:00,59.9,57.9,29.54,WNW,285,1.0,3.0,93,0.09,,,0.10,WUHU216DAVISVP2,2013-04-12 08:05:00,
2013-04-12 04:10:00,59.6,57.6,29.54,WNW,285,1.0,3.0,93,0.09,,,0.11,WUHU216DAVISVP2,2013-04-12 08:10:00,
2013-04-12 04:15:00,59.5,57.8,29.53,WNW,285,0.0,2.0,94,0.07,,,0.11,WUHU216DAVISVP2,2013-04-12 08:15:00,
2013-04-12 04:20:00,59.5,58.1,29.53,NE,45,3.0,3.0,95,0.06,,,0.11,WUHU216DAVISVP2,2013-04-12 08:20:00,
2013-04-12 04:25:00,59.4,58.0,29.53,NNE,30,0.0,3.0,95,0.06,,,0.11,WUHU216DAVISVP2,2013-04-12 08:25:00,
2013-04-12 04:30:00,59.4,58.0,29.53,SSE,149,0.0,3.0,95,0.05,,,0.11,WUHU216DAVISVP2,2013-04-12 08:30:00,
2013-04-12 04:35:00,59.4,58.0,29.53,SSE,149,0.0,3.0,95,0.04,,,0.11,WUHU216DAVISVP2,2013-04-12 08:35:00,
2013-04-12 04:40:00,59.4,58.0,29.53,SSE,149,1.0,3.0,95,0.03,,,0.11,WUHU216DAVISVP2,2013-04-12 08:40:00,
2013-04-12 04:45:00,59.3,57.8,29.52,SSE,149,0.0,3.0,95,0.04,,,0.12,WUHU216DAVISVP2,2013-04-12 08:45:00,
2013-04-12 04:50:00,59.3,58.1,29.53,SSE,149,0.0,2.0,96,0.04,,,0.13,WUHU216DAVISVP2,2013-04-12 08:50:00,
2013-04-12 04:55:00,59.2,58.0,29.53,SSE,149,0.0,2.0,96,0.03,,,0.13,WUHU216DAVISVP2,2013-04-12 08:55:00,
2013-04-12 05:00:00,59.1,57.9,29.53,SSE,149,0.0,2.0,96,0.04,,,0.14,WUHU216DAVISVP2,2013-04-12 09:00:00,
2013-04-12 05:05:00,59.1,57.9,29.54,SSW,207,1.0,2.0,96,0.05,,,0.15,WUHU216DAVISVP2,2013-04-12 09:05:00,
2013-04-12 05:10:00,59.1,57.9,29.55,WNW,290,2.0,4.0,96,0.09,,,0.21,WUHU216DAVISVP2,2013-04-12 09:10:00,
2013-04-12 05:15:00,59.1,57.9,29.55,SSW,197,3.0,5.0,96,0.14,,,0.25,WUHU216DAVISVP2,2013-04-12 09:15:00,
2013-04-12 05:20:00,59.4,58.2,29.55,SSW,206,5.0,9.0,96,0.15,,,0.26,WUHU216DAVISVP2,2013-04-12 09:20:00,
2013-04-12 05:25:00,59.7,58.5,29.55,SW,224,0.0,9.0,96,0.16,,,0.27,WUHU216DAVISVP2,2013-04-12 09:25:00,
2013-04-12 05:30:00,59.7,58.2,29.56,SSW,200,2.0,9.0,95,0.17,,,0.28,WUHU216DAVISVP2,2013-04-12 09:30:00,
2013-04-12 05:35:00,59.8,58.3,29.56,South,191,1.0,9.0,95,0.18,,,0.29,WUHU216DAVISVP2,2013-04-12 09:35:00,
2013-04-12 05:40:00,60.0,58.5,29.56,South,180,0.0,6.0,95,0.20,,,0.31,WUHU216DAVISVP2,2013-04-12 09:40:00,
2013-04-12 05:45:00,60.0,58.5,29.56,South,181,0.0,6.0,95,0.20,,,0.32,WUHU216DAVISVP2,2013-04-12 09:45:00,
2013-04-12 05:50:00,60.0,58.5,29.56,SSE,151,0.0,6.0,95,0.21,,,0.34,WUHU216DAVISVP2,2013-04-12 09:50:00,
2013-04-12 05:55:00,60.2,58.8,29.56,SE,138,0.0,4.0,95,0.22,,,0.35,WUHU216DAVISVP2,2013-04-12 09:55:00,
2013-04-12 06:00:00,60.2,58.8,29.56,SE,137,1.0,4.0,95,0.23,,,0.37,WUHU216DAVISVP2,2013-04-12 10:00:00,
2013-04-12 06:05:00,60.2,58.8,29.56,SSE,154,1.0,4.0,95,0.23,,,0.38,WUHU216DAVISVP2,2013-04-12 10:05:00,
2013-04-12 06:10:00,60.3,58.9,29.55,SSW,198,4.0,5.0,95,0.18,,,0.39,WUHU216DAVISVP2,2013-04-12 10:10:00,
2013-04-12 06:15:00,60.4,58.7,29.55,ESE,104,0.0,5.0,94,0.16,,,0.41,WUHU216DAVISVP2,2013-04-12 10:15:00,
2013-04-12 06:20:00,60.4,58.7,29.55,SSE,156,1.0,5.0,94,0.16,,,0.42,WUHU216DAVISVP2,2013-04-12 10:20:00,
2013-04-12 06:25:00,60.3,58.6,29.55,SE,145,1.0,5.0,94,0.16,,,0.43,WUHU216DAVISVP2,2013-04-12 10:25:00,
2013-04-12 06:30:00,60.3,58.6,29.54,SE,145,0.0,2.0,94,0.15,,,0.43,WUHU216DAVISVP2,2013-04-12 10:30:00,
2013-04-12 06:35:00,60.2,58.5,29.53,ESE,123,0.0,3.0,94,0.14,,,0.43,WUHU216DAVISVP2,2013-04-12 10:35:00,
2013-04-12 06:40:00,60.1,58.3,29.52,East,79,2.0,5.0,94,0.13,,,0.44,WUHU216DAVISVP2,2013-04-12 10:40:00,
2013-04-12 06:45:00,60.0,58.2,29.52,ESE,111,0.0,5.0,94,0.12,,,0.44,WUHU216DAVISVP2,2013-04-12 10:45:00,
2013-04-12 06:50:00,59.9,58.1,29.52,SE,128,0.0,5.0,94,0.10,,,0.44,WUHU216DAVISVP2,2013-04-12 10:50:00,
2013-04-12 06:55:00,59.8,58.0,29.52,SE,128,0.0,5.0,94,0.09,,,0.44,WUHU216DAVISVP2,2013-04-12 10:55:00,
2013-04-12 07:00:00,59.7,58.2,29.52,SE,128,0.0,2.0,95,0.08,,,0.45,WUHU216DAVISVP2,2013-04-12 11:00:00,
2013-04-12 07:05:00,59.6,58.1,29.52,SE,127,0.0,2.0,95,0.07,,,0.45,WUHU216DAVISVP2,2013-04-12 11:05:00,
2013-04-12 07:10:00,59.5,58.0,29.52,SE,128,0.0,0.0,95,0.06,,,0.45,WUHU216DAVISVP2,2013-04-12 11:10:00,
2013-04-12 07:15:00,59.4,57.9,29.51,SE,127,0.0,2.0,95,0.04,,,0.45,WUHU216DAVISVP2,2013-04-12 11:15:00,
2013-04-12 07:20:00,59.3,57.8,29.51,SE,127,0.0,2.0,95,0.04,,,0.46,WUHU216DAVISVP2,2013-04-12 11:20:00,
2013-04-12 07:25:00,59.2,58.0,29.52,SE,128,0.0,2.0,96,0.03,,,0.46,WUHU216DAVISVP2,2013-04-12 11:25:00,
2013-04-12 07:30:00,59.1,57.9,29.53,SE,128,0.0,2.0,96,0.03,,,0.46,WUHU216DAVISVP2,2013-04-12 11:30:00,
2013-04-12 07:35:00,59.0,57.8,29.53,SE,127,0.0,2.0,96,0.04,,,0.47,WUHU216DAVISVP2,2013-04-12 11:35:00,
2013-04-12 07:40:00,58.8,57.6,29.52,East,100,0.0,2.0,96,0.04,,,0.48,WUHU216DAVISVP2,2013-04-12 11:40:00,
2013-04-12 07:45:00,58.8,57.6,29.53,East,100,0.0,2.0,96,0.05,,,0.49,WUHU216DAVISVP2,2013-04-12 11:45:00,
2013-04-12 07:50:00,58.8,57.6,29.52,East,100,0.0,2.0,96,0.07,,,0.51,WUHU216DAVISVP2,2013-04-12 11:50:00,
2013-04-12 07:55:00,58.8,57.9,29.53,East,100,1.0,2.0,97,0.09,,,0.53,WUHU216DAVISVP2,2013-04-12 11:55:00,
2013-04-12 08:00:00,58.8,57.9,29.53,East,100,0.0,2.0,97,0.10,,,0.55,WUHU216DAVISVP2,2013-04-12 12:00:00,
2013-04-12 08:05:00,58.7,57.8,29.53,East,100,0.0,2.0,97,0.12,,,0.57,WUHU216DAVISVP2,2013-04-12 12:05:00,
2013-04-12 08:10:00,58.7,57.8,29.52,East,100,0.0,2.0,97,0.12,,,0.57,WUHU216DAVISVP2,2013-04-12 12:10:00,
2013-04-12 08:15:00,58.7,57.8,29.53,East,100,0.0,2.0,97,0.12,,,0.57,WUHU216DAVISVP2,2013-04-12 12:15:00,
2013-04-12 08:20:00,58.7,57.8,29.53,East,100,0.0,2.0,97,0.11,,,0.57,WUHU216DAVISVP2,2013-04-12 12:20:00,
2013-04-12 08:25:00,58.8,57.9,29.53,East,100,0.0,1.0,97,0.11,,,0.57,WUHU216DAVISVP2,2013-04-12 12:25:00,
2013-04-12 08:30:00,58.8,57.9,29.53,East,100,0.0,1.0,97,0.12,,,0.58,WUHU216DAVISVP2,2013-04-12 12:30:00,
2013-04-12 08:35:00,58.8,57.9,29.53,East,100,0.0,0.0,97,0.11,,,0.58,WUHU216DAVISVP2,2013-04-12 12:35:00,
2013-04-12 08:40:00,58.8,57.9,29.53,East,100,0.0,0.0,97,0.10,,,0.58,WUHU216DAVISVP2,2013-04-12 12:40:00,
2013-04-12 08:45:00,58.9,58.0,29.53,East,100,0.0,2.0,97,0.09,,,0.58,WUHU216DAVISVP2,2013-04-12 12:45:00,
2013-04-12 08:50:00,58.9,58.0,29.53,East,100,0.0,2.0,97,0.07,,,0.58,WUHU216DAVISVP2,2013-04-12 12:50:00,
2013-04-12 08:55:00,59.0,58.1,29.53,East,100,0.0,2.0,97,0.06,,,0.59,WUHU216DAVISVP2,2013-04-12 12:55:00,
2013-04-12 09:00:00,59.0,58.1,29.54,East,100,0.0,2.0,97,0.04,,,0.59,WUHU216DAVISVP2,2013-04-12 13:00:00,
2013-04-12 09:05:00,59.0,58.1,29.53,East,100,0.0,1.0,97,0.02,,,0.59,WUHU216DAVISVP2,2013-04-12 13:05:00,
2013-04-12 09:10:00,59.2,58.6,29.53,East,100,2.0,2.0,98,0.02,,,0.59,WUHU216DAVISVP2,2013-04-12 13:10:00,
2013-04-12 09:15:00,59.3,58.7,29.53,East,100,0.0,2.0,98,0.02,,,0.59,WUHU216DAVISVP2,2013-04-12 13:15:00,
2013-04-12 09:20:00,59.5,58.9,29.53,East,100,0.0,2.0,98,0.02,,,0.59,WUHU216DAVISVP2,2013-04-12 13:20:00,
2013-04-12 09:25:00,59.5,58.9,29.54,NW,326,1.0,3.0,98,0.03,,,0.60,WUHU216DAVISVP2,2013-04-12 13:25:00,
2013-04-12 09:30:00,59.6,59.0,29.54,NW,326,0.0,3.0,98,0.02,,,0.60,WUHU216DAVISVP2,2013-04-12 13:30:00,
2013-04-12 09:35:00,59.7,58.8,29.54,NW,326,0.0,3.0,97,0.02,,,0.60,WUHU216DAVISVP2,2013-04-12 13:35:00,
2013-04-12 09:40:00,59.6,58.7,29.54,NW,326,0.0,3.0,97,0.02,,,0.60,WUHU216DAVISVP2,2013-04-12 13:40:00,
2013-04-12 09:45:00,59.6,58.7,29.53,NW,326,0.0,1.0,97,0.02,,,0.60,WUHU216DAVISVP2,2013-04-12 13:45:00,
2013-04-12 09:50:00,59.7,58.5,29.54,NW,317,1.0,3.0,96,0.02,,,0.60,WUHU216DAVISVP2,2013-04-12 13:50:00,
2013-04-12 09:55:00,59.7,58.5,29.54,NW,312,2.0,3.0,96,0.01,,,0.60,WUHU216DAVISVP2,2013-04-12 13:55:00,
2013-04-12 10:00:00,59.7,58.5,29.54,NW,312,0.0,3.0,96,0.01,,,0.60,WUHU216DAVISVP2,2013-04-12 14:00:00,
2013-04-12 10:05:00,59.9,58.7,29.54,NW,312,0.0,3.0,96,0.01,,,0.60,WUHU216DAVISVP2,2013-04-12 14:05:00,
2013-04-12 10:10:00,60.3,59.1,29.54,NW,313,0.0,3.0,96,0.01,,,0.60,WUHU216DAVISVP2,2013-04-12 14:10:00,
2013-04-12 10:15:00,60.5,59.3,29.54,NW,313,0.0,3.0,96,0.01,,,0.60,WUHU216DAVISVP2,2013-04-12 14:15:00,
2013-04-12 10:20:00,60.8,59.6,29.54,NW,313,0.0,2.0,96,0.01,,,0.60,WUHU216DAVISVP2,2013-04-12 14:20:00,
2013-04-12 10:25:00,60.9,59.4,29.54,NNW,332,2.0,2.0,95,0.00,,,0.60,WUHU216DAVISVP2,2013-04-12 14:25:00,
2013-04-12 10:30:00,61.2,59.4,29.54,NNW,335,0.0,3.0,94,0.00,,,0.60,WUHU216DAVISVP2,2013-04-12 14:30:00,
2013-04-12 10:35:00,61.3,59.5,29.55,NNW,335,0.0,3.0,94,0.01,,,0.61,WUHU216DAVISVP2,2013-04-12 14:35:00,
2013-04-12 10:40:00,61.4,59.3,29.55,NNW,335,0.0,3.0,93,0.03,,,0.63,WUHU216DAVISVP2,2013-04-12 14:40:00,
2013-04-12 10:45:00,61.6,59.8,29.55,NNW,335,1.0,3.0,94,0.03,,,0.63,WUHU216DAVISVP2,2013-04-12 14:45:00,
2013-04-12 10:50:00,61.8,60.0,29.55,NNW,330,1.0,2.0,94,0.03,,,0.63,WUHU216DAVISVP2,2013-04-12 14:50:00,
2013-04-12 10:55:00,62.3,60.2,29.55,SSW,213,6.0,7.0,93,0.03,,,0.63,WUHU216DAVISVP2,2013-04-12 14:55:00,
2013-04-12 11:00:00,63.3,60.6,29.55,WSW,246,3.0,11.0,91,0.03,,,0.63,WUHU216DAVISVP2,2013-04-12 15:00:00,
2013-04-12 11:05:00,64.1,59.8,29.55,SSW,206,7.0,11.0,86,0.03,,,0.63,WUHU216DAVISVP2,2013-04-12 15:05:00,
2013-04-12 11:10:00,64.7,59.5,29.55,West,264,3.0,11.0,83,0.03,,,0.63,WUHU216DAVISVP2,2013-04-12 15:10:00,
2013-04-12 11:15:00,65.3,59.7,29.55,SW,231,8.0,11.0,82,0.03,,,0.63,WUHU216DAVISVP2,2013-04-12 15:15:00,
2013-04-12 11:20:00,65.9,59.6,29.55,SW,235,7.0,11.0,80,0.03,,,0.63,WUHU216DAVISVP2,2013-04-12 15:20:00,
2013-04-12 11:25:00,66.4,59.1,29.55,SSW,204,4.0,11.0,77,0.03,,,0.63,WUHU216DAVISVP2,2013-04-12 15:25:00,
2013-04-12 11:30:00,66.9,60.6,29.55,SSW,206,7.0,13.0,80,0.03,,,0.63,WUHU216DAVISVP2,2013-04-12 15:30:00,
2013-04-12 11:35:00,67.1,59.4,29.55,SSW,205,2.0,13.0,76,0.02,,,0.63,WUHU216DAVISVP2,2013-04-12 15:35:00,
2013-04-12 11:40:00,67.1,58.3,29.55,South,191,14.0,17.0,73,0.00,,,0.63,WUHU216DAVISVP2,2013-04-12 15:40:00,
2013-04-12 11:45:00,66.9,58.5,29.55,SW,228,8.0,17.0,74,0.00,,,0.63,WUHU216DAVISVP2,2013-04-12 15:45:00,
2013-04-12 11:50:00,66.7,58.6,29.55,NW,305,5.0,17.0,75,0.00,,,0.63,WUHU216DAVISVP2,2013-04-12 15:50:00,
2013-04-12 11:55:00,66.2,58.9,29.56,WNW,293,7.0,17.0,77,0.02,,,0.65,WUHU216DAVISVP2,2013-04-12 15:55:00,
2013-04-12 12:00:00,64.7,58.5,29.56,WNW,289,3.0,15.0,80,0.02,,,0.65,WUHU216DAVISVP2,2013-04-12 16:00:00,
2013-04-12 12:05:00,63.7,57.8,29.56,South,182,5.0,15.0,81,0.02,,,0.65,WUHU216DAVISVP2,2013-04-12 16:05:00,
2013-04-12 12:10:00,63.3,57.8,29.56,West,277,2.0,15.0,82,0.02,,,0.65,WUHU216DAVISVP2,2013-04-12 16:10:00,
2013-04-12 12:15:00,63.5,58.2,29.56,WSW,250,5.0,15.0,83,0.02,,,0.65,WUHU216DAVISVP2,2013-04-12 16:15:00,
2013-04-12 12:20:00,64.4,58.8,29.56,WSW,256,2.0,15.0,82,0.02,,,0.65,WUHU216DAVISVP2,2013-04-12 16:20:00,
2013-04-12 12:25:00,65.2,59.2,29.56,West,260,2.0,15.0,81,0.03,,,0.66,WUHU216DAVISVP2,2013-04-12 16:25:00,
2013-04-12 12:30:00,64.8,57.4,29.57,West,279,4.0,15.0,77,0.03,,,0.66,WUHU216DAVISVP2,2013-04-12 16:30:00,
2013-04-12 12:35:00,64.4,57.5,29.57,NW,309,11.0,18.0,78,0.03,,,0.66,WUHU216DAVISVP2,2013-04-12 16:35:00,
2013-04-12 12:40:00,64.1,57.2,29.57,WSW,256,4.0,18.0,78,0.03,,,0.66,WUHU216DAVISVP2,2013-04-12 16:40:00,
2013-04-12 12:45:00,64.3,58.1,29.58,WSW,250,6.0,17.0,80,0.03,,,0.66,WUHU216DAVISVP2,2013-04-12 16:45:00,
2013-04-12 12:50:00,64.4,56.8,29.58,West,268,5.0,18.0,76,0.03,,,0.66,WUHU216DAVISVP2,2013-04-12 16:50:00,
2013-04-12 12:55:00,64.3,56.7,29.58,WSW,253,3.0,18.0,76,0.01,,,0.66,WUHU216DAVISVP2,2013-04-12 16:55:00,
2013-04-12 13:00:00,64.2,55.9,29.58,SW,235,6.0,18.0,74,0.01,,,0.66,WUHU216DAVISVP2,2013-04-12 17:00:00,
2013-04-12 13:05:00,63.9,55.6,29.58,SW,233,4.0,18.0,74,0.01,,,0.66,WUHU216DAVISVP2,2013-04-12 17:05:00,
2013-04-12 13:10:00,64.0,56.4,29.58,West,264,7.0,17.0,76,0.01,,,0.66,WUHU216DAVISVP2,2013-04-12 17:10:00,
2013-04-12 13:15:00,64.3,56.7,29.58,SSW,210,8.0,17.0,76,0.01,,,0.66,WUHU216DAVISVP2,2013-04-12 17:15:00,
2013-04-12 13:20:00,64.2,56.2,29.59,West,268,14.0,17.0,75,0.01,,,0.66,WUHU216DAVISVP2,2013-04-12 17:20:00,
2013-04-12 13:25:00,63.6,55.3,29.59,WNW,303,6.0,17.0,74,0.00,,,0.66,WUHU216DAVISVP2,2013-04-12 17:25:00,
2013-04-12 13:30:00,63.2,54.5,29.59,WNW,286,8.0,17.0,73,0.00,,,0.66,WUHU216DAVISVP2,2013-04-12 17:30:00,
2013-04-12 13:35:00,62.7,54.8,29.59,SSW,195,6.0,17.0,75,0.00,,,0.66,WUHU216DAVISVP2,2013-04-12 17:35:00,
2013-04-12 13:40:00,62.6,54.7,29.59,SSW,206,8.0,17.0,75,0.00,,,0.66,WUHU216DAVISVP2,2013-04-12 17:40:00,
2013-04-12 13:45:00,62.8,54.9,29.59,East,98,3.0,14.0,75,0.00,,,0.66,WUHU216DAVISVP2,2013-04-12 17:45:00,
2013-04-12 13:50:00,63.0,54.3,29.59,SSW,209,2.0,16.0,73,0.00,,,0.66,WUHU216DAVISVP2,2013-04-12 17:50:00,
2013-04-12 13:56:00,63.2,54.0,29.59,SW,222,3.0,16.0,72,0.00,,,0.66,WUHU216DAVISVP2,2013-04-12 17:56:00,
2013-04-12 14:01:00,63.5,53.5,29.58,West,273,5.0,16.0,70,0.00,,,0.66,WUHU216DAVISVP2,2013-04-12 18:01:00,
2013-04-12 14:07:00,63.4,53.8,29.58,SSW,195,2.0,16.0,71,0.00,,,0.66,WUHU216DAVISVP2,2013-04-12 18:07:00,
2013-04-12 14:12:00,63.2,52.9,29.58,SW,224,3.0,17.0,69,0.00,,,0.66,WUHU216DAVISVP2,2013-04-12 18:12:00,
2013-04-12 14:17:00,63.2,54.4,29.58,WSW,256,5.0,17.0,73,0.00,,,0.66,WUHU216DAVISVP2,2013-04-12 18:17:00,
2013-04-12 14:22:00,63.2,53.6,29.58,SW,218,5.0,17.0,71,0.00,,,0.66,WUHU216DAVISVP2,2013-04-12 18:22:00,
2013-04-12 14:28:00,64.1,54.3,29.59,NW,319,1.0,17.0,70,0.00,,,0.66,WUHU216DAVISVP2,2013-04-12 18:28:00,
2013-04-12 14:30:00,64.6,54.4,29.58,SW,215,8.0,15.0,69,0.00,,,0.66,WUHU216DAVISVP2,2013-04-12 18:30:00,
2013-04-12 14:36:00,65.0,53.1,29.58,SSW,197,3.0,15.0,65,0.00,,,0.66,WUHU216DAVISVP2,2013-04-12 18:36:00,
2013-04-12 14:41:00,65.2,52.0,29.58,SSW,195,8.0,16.0,62,0.00,,,0.66,WUHU216DAVISVP2,2013-04-12 18:41:00,
2013-04-12 14:47:00,64.3,52.0,29.58,SSW,210,7.0,21.0,64,0.00,,,0.66,WUHU216DAVISVP2,2013-04-12 18:47:00,
2013-04-12 14:53:00,64.1,51.4,29.58,WNW,299,5.0,21.0,63,0.00,,,0.66,WUHU216DAVISVP2,2013-04-12 18:53:00,
2013-04-12 15:05:00,64.7,51.1,29.58,SW,227,7.0,13.0,61,0.00,,,0.66,WUHU216DAVISVP2,2013-04-12 19:05:00,
2013-04-12 15:11:00,65.0,50.9,29.58,SSW,211,5.0,13.0,60,0.00,,,0.66,WUHU216DAVISVP2,2013-04-12 19:11:00,
2013-04-12 15:26:00,65.0,49.5,29.58,SSW,200,4.0,12.0,57,0.00,,,0.66,WUHU216DAVISVP2,2013-04-12 19:26:00,
2013-04-12 15:31:00,65.0,50.0,29.58,SW,231,7.0,12.0,58,0.00,,,0.66,WUHU216DAVISVP2,2013-04-12 19:31:00,
2013-04-12 15:36:00,64.9,49.4,29.58,WSW,253,4.0,12.0,57,0.00,,,0.66,WUHU216DAVISVP2,2013-04-12 19:36:00,
2013-04-12 15:41:00,64.8,49.8,29.58,WNW,285,4.0,12.0,58,0.00,,,0.66,WUHU216DAVISVP2,2013-04-12 19:41:00,
2013-04-12 15:47:00,65.2,50.2,29.58,South,191,5.0,12.0,58,0.00,,,0.66,WUHU216DAVISVP2,2013-04-12 19:47:00,
2013-04-12 15:52:00,65.8,51.1,29.58,West,279,1.0,11.0,59,0.00,,,0.66,WUHU216DAVISVP2,2013-04-12 19:52:00,
2013-04-12 15:57:00,65.9,49.8,29.58,SW,216,4.0,11.0,56,0.00,,,0.66,WUHU216DAVISVP2,2013-04-12 19:57:00,
2013-04-12 16:02:00,65.7,49.1,29.58,West,276,13.0,13.0,55,0.00,,,0.66,WUHU216DAVISVP2,2013-04-12 20:02:00,
2013-04-12 16:07:00,65.8,48.7,29.58,WSW,257,4.0,16.0,54,0.00,,,0.66,WUHU216DAVISVP2,2013-04-12 20:07:00,
2013-04-12 16:12:00,65.6,48.0,29.58,SSW,193,6.0,17.0,53,0.00,,,0.66,WUHU216DAVISVP2,2013-04-12 20:12:00,
2013-04-12 16:17:00,65.3,47.7,29.57,SW,221,5.0,17.0,53,0.00,,,0.66,WUHU216DAVISVP2,2013-04-12 20:17:00,
2013-04-12 16:22:00,65.2,46.6,29.58,SW,214,12.0,17.0,51,0.00,,,0.66,WUHU216DAVISVP2,2013-04-12 20:22:00,
2013-04-12 16:27:00,65.1,47.5,29.58,South,176,8.0,15.0,53,0.00,,,0.66,WUHU216DAVISVP2,2013-04-12 20:27:00,
2013-04-12 16:32:00,65.0,47.4,29.58,West,278,3.0,19.0,53,0.00,,,0.66,WUHU216DAVISVP2,2013-04-12 20:32:00,
2013-04-12 16:37:00,65.0,46.4,29.58,SSW,209,7.0,19.0,51,0.00,,,0.66,WUHU216DAVISVP2,2013-04-12 20:37:00,
2013-04-12 16:42:00,64.8,46.2,29.58,SSW,210,6.0,18.0,51,0.00,,,0.66,WUHU216DAVISVP2,2013-04-12 20:42:00,
2013-04-12 16:47:00,64.7,46.7,29.58,WSW,251,3.0,16.0,52,0.00,,,0.66,WUHU216DAVISVP2,2013-04-12 20:47:00,
2013-04-12 16:52:00,64.8,46.8,29.58,SSW,207,7.0,16.0,52,0.00,,,0.66,WUHU216DAVISVP2,2013-04-12 20:52:00,
2013-04-12 16:57:00,64.9,46.3,29.58,South,184,3.0,16.0,51,0.00,,,0.66,WUHU216DAVISVP2,2013-04-12 20:57:00,
2013-04-12 17:02:00,64.9,45.3,29.58,SSW,212,10.0,23.0,49,0.00,,,0.66,WUHU216DAVISVP2,2013-04-12 21:02:00,
2013-04-12 17:07:00,64.7,45.1,29.58,West,269,4.0,23.0,49,0.00,,,0.66,WUHU216DAVISVP2,2013-04-12 21:07:00,
2013-04-12 17:12:00,64.7,46.1,29.59,SW,231,10.0,23.0,51,0.00,,,0.66,WUHU216DAVISVP2,2013-04-12 21:12:00,
2013-04-12 17:17:00,65.4,45.7,29.59,SW,227,1.0,23.0,49,0.00,,,0.66,WUHU216DAVISVP2,2013-04-12 21:17:00,
2013-04-12 17:22:00,66.1,45.8,29.59,SSW,206,1.0,16.0,48,0.00,,,0.66,WUHU216DAVISVP2,2013-04-12 21:22:00,
2013-04-12 17:27:00,66.2,44.2,29.59,SSW,208,4.0,16.0,45,0.00,,,0.66,WUHU216DAVISVP2,2013-04-12 21:27:00,
2013-04-12 17:32:00,65.7,44.3,29.59,South,183,10.0,14.0,46,0.00,,,0.66,WUHU216DAVISVP2,2013-04-12 21:32:00,
2013-04-12 17:37:00,64.9,44.2,29.60,SW,235,10.0,15.0,47,0.00,,,0.66,WUHU216DAVISVP2,2013-04-12 21:37:00,
2013-04-12 17:42:00,64.8,44.6,29.60,SW,216,7.0,15.0,48,0.00,,,0.66,WUHU216DAVISVP2,2013-04-12 21:42:00,
2013-04-12 17:47:00,64.9,44.2,29.61,SW,229,3.0,15.0,47,0.00,,,0.66,WUHU216DAVISVP2,2013-04-12 21:47:00,
2013-04-12 17:52:00,64.9,43.6,29.60,West,262,4.0,15.0,46,0.00,,,0.66,WUHU216DAVISVP2,2013-04-12 21:52:00,
2013-04-12 17:57:00,65.1,43.2,29.60,SSW,203,7.0,20.0,45,0.00,,,0.66,WUHU216DAVISVP2,2013-04-12 21:57:00,
2013-04-12 18:02:00,65.3,42.8,29.61,SW,216,5.0,20.0,44,0.00,,,0.66,WUHU216DAVISVP2,2013-04-12 22:02:00,
2013-04-12 18:07:00,65.2,41.5,29.62,SSW,196,4.0,20.0,42,0.00,,,0.66,WUHU216DAVISVP2,2013-04-12 22:07:00,
2013-04-12 18:12:00,64.3,40.7,29.62,NW,311,7.0,19.0,42,0.00,,,0.66,WUHU216DAVISVP2,2013-04-12 22:12:00,
2013-04-12 18:17:00,63.6,40.0,29.62,WNW,289,6.0,18.0,42,0.00,,,0.66,WUHU216DAVISVP2,2013-04-12 22:17:00,
2013-04-12 18:22:00,63.2,40.2,29.63,SSW,199,3.0,18.0,43,0.00,,,0.66,WUHU216DAVISVP2,2013-04-12 22:22:00,
2013-04-12 18:27:00,62.9,40.6,29.63,West,262,6.0,18.0,44,0.00,,,0.66,WUHU216DAVISVP2,2013-04-12 22:27:00,
2013-04-12 18:32:00,62.5,41.4,29.63,SW,222,8.0,17.0,46,0.00,,,0.66,WUHU216DAVISVP2,2013-04-12 22:32:00,
2013-04-12 18:37:00,62.2,41.7,29.64,South,188,7.0,15.0,47,0.00,,,0.66,WUHU216DAVISVP2,2013-04-12 22:37:00,
2013-04-12 18:42:00,62.1,41.1,29.64,West,266,5.0,15.0,46,0.00,,,0.66,WUHU216DAVISVP2,2013-04-12 22:42:00,
2013-04-12 18:47:00,62.0,41.0,29.64,WSW,257,7.0,16.0,46,0.00,,,0.66,WUHU216DAVISVP2,2013-04-12 22:47:00,
2013-04-12 18:52:00,62.2,40.6,29.65,NW,306,6.0,16.0,45,0.00,,,0.66,WUHU216DAVISVP2,2013-04-12 22:52:00,
2013-04-12 18:57:00,62.3,40.1,29.65,WNW,303,8.0,16.0,44,0.00,,,0.66,WUHU216DAVISVP2,2013-04-12 22:57:00,
2013-04-12 19:02:00,62.2,40.6,29.65,NW,312,5.0,16.0,45,0.00,,,0.66,WUHU216DAVISVP2,2013-04-12 23:02:00,
2013-04-12 19:07:00,61.8,40.2,29.65,West,264,3.0,14.0,45,0.00,,,0.66,WUHU216DAVISVP2,2013-04-12 23:07:00,
2013-04-12 19:12:00,61.4,40.4,29.65,NW,324,11.0,14.0,46,0.00,,,0.66,WUHU216DAVISVP2,2013-04-12 23:12:00,
2013-04-12 19:17:00,60.7,40.3,29.66,WNW,303,9.0,18.0,47,0.00,,,0.66,WUHU216DAVISVP2,2013-04-12 23:17:00,
2013-04-12 19:22:00,60.2,41.0,29.66,WNW,297,5.0,18.0,49,0.00,,,0.66,WUHU216DAVISVP2,2013-04-12 23:22:00,
2013-04-12 19:27:00,59.7,41.0,29.67,West,281,7.0,18.0,50,0.00,,,0.66,WUHU216DAVISVP2,2013-04-12 23:27:00,
2013-04-12 19:32:00,59.2,41.6,29.67,WNW,282,3.0,18.0,52,0.00,,,0.66,WUHU216DAVISVP2,2013-04-12 23:32:00,
2013-04-12 19:37:00,58.7,40.1,29.68,NNW,330,6.0,16.0,50,0.00,,,0.66,WUHU216DAVISVP2,2013-04-12 23:37:00,
2013-04-12 19:42:00,58.2,40.2,29.68,NW,318,6.0,18.0,51,0.00,,,0.66,WUHU216DAVISVP2,2013-04-12 23:42:00,
2013-04-12 19:47:00,57.8,40.8,29.69,WNW,299,10.0,18.0,53,0.00,,,0.66,WUHU216DAVISVP2,2013-04-12 23:47:00,
2013-04-12 19:52:00,56.6,42.1,29.70,NW,318,11.0,18.0,58,0.00,,,0.66,WUHU216DAVISVP2,2013-04-12 23:52:00,
2013-04-12 19:57:00,55.7,42.6,29.70,NW,326,11.0,18.0,61,0.00,,,0.66,WUHU216DAVISVP2,2013-04-12 23:57:00,
2013-04-12 20:02:00,54.4,43.4,29.72,NNW,328,12.0,20.0,66,0.00,,,0.66,WUHU216DAVISVP2,2013-04-13 00:02:00,
2013-04-12 20:07:00,53.1,42.4,29.72,NW,305,9.0,20.0,67,0.00,,,0.66,WUHU216DAVISVP2,2013-04-13 00:07:00,
2013-04-12 20:12:00,52.2,42.3,29.72,NW,306,11.0,20.0,69,0.00,,,0.66,WUHU216DAVISVP2,2013-04-13 00:12:00,
2013-04-12 20:17:00,51.4,41.7,29.73,WNW,287,12.0,20.0,69,0.00,,,0.66,WUHU216DAVISVP2,2013-04-13 00:17:00,
2013-04-12 20:22:00,50.8,41.1,29.74,WNW,293,10.0,20.0,69,0.00,,,0.66,WUHU216DAVISVP2,2013-04-13 00:22:00,
2013-04-12 20:27:00,50.5,40.8,29.75,WNW,285,6.0,20.0,69,0.00,,,0.66,WUHU216DAVISVP2,2013-04-13 00:27:00,
2013-04-12 20:32:00,50.3,40.6,29.75,NNW,341,8.0,20.0,69,0.00,,,0.66,WUHU216DAVISVP2,2013-04-13 00:32:00,
2013-04-12 20:37:00,50.0,40.0,29.75,West,266,4.0,20.0,68,0.00,,,0.66,WUHU216DAVISVP2,2013-04-13 00:37:00,
2013-04-12 20:42:00,49.8,40.1,29.76,NNW,340,7.0,16.0,69,0.00,,,0.66,WUHU216DAVISVP2,2013-04-13 00:42:00,
2013-04-12 20:47:00,49.6,40.3,29.76,North,354,4.0,16.0,70,0.00,,,0.66,WUHU216DAVISVP2,2013-04-13 00:47:00,
2013-04-12 20:52:00,49.4,40.0,29.77,NW,304,6.0,16.0,70,0.00,,,0.66,WUHU216DAVISVP2,2013-04-13 00:52:00,
2013-04-12 20:57:00,49.2,39.5,29.77,NW,322,4.0,15.0,69,0.00,,,0.66,WUHU216DAVISVP2,2013-04-13 00:57:00,
2013-04-12 21:02:00,49.0,39.4,29.77,NNE,15,2.0,15.0,69,0.00,,,0.66,WUHU216DAVISVP2,2013-04-13 01:02:00,
2013-04-12 21:07:00,48.7,39.1,29.78,North,4,9.0,15.0,69,0.00,,,0.66,WUHU216DAVISVP2,2013-04-13 01:07:00,
2013-04-12 21:12:00,48.5,38.9,29.78,NNW,342,3.0,14.0,69,0.00,,,0.66,WUHU216DAVISVP2,2013-04-13 01:12:00,
2013-04-12 21:17:00,48.4,38.8,29.79,NW,326,1.0,9.0,69,0.00,,,0.66,WUHU216DAVISVP2,2013-04-13 01:17:00,
2013-04-12 21:22:00,48.3,38.7,29.79,SSW,206,2.0,9.0,69,0.00,,,0.66,WUHU216DAVISVP2,2013-04-13 01:22:00,
2013-04-12 21:27:00,48.2,38.2,29.79,NW,319,2.0,9.0,68,0.00,,,0.66,WUHU216DAVISVP2,2013-04-13 01:27:00,
2013-04-12 21:32:00,48.1,38.5,29.80,NW,316,0.0,9.0,69,0.00,,,0.66,WUHU216DAVISVP2,2013-04-13 01:32:00,
2013-04-12 21:37:00,48.1,38.5,29.80,WNW,299,0.0,9.0,69,0.00,,,0.66,WUHU216DAVISVP2,2013-04-13 01:37:00,
2013-04-12 21:42:00,48.0,38.4,29.80,SSW,210,0.0,9.0,69,0.00,,,0.66,WUHU216DAVISVP2,2013-04-13 01:42:00,
2013-04-12 21:47:00,48.0,38.0,29.80,West,259,1.0,5.0,68,0.00,,,0.66,WUHU216DAVISVP2,2013-04-13 01:47:00,
2013-04-12 21:52:00,48.0,38.0,29.80,WSW,256,1.0,5.0,68,0.00,,,0.66,WUHU216DAVISVP2,2013-04-13 01:52:00,
2013-04-12 21:57:00,48.0,38.0,29.80,WSW,240,2.0,5.0,68,0.00,,,0.66,WUHU216DAVISVP2,2013-04-13 01:57:00,
2013-04-12 22:02:00,48.1,37.8,29.81,WNW,289,3.0,5.0,67,0.00,,,0.66,WUHU216DAVISVP2,2013-04-13 02:02:00,
2013-04-12 22:08:00,48.1,37.4,29.81,NNW,345,5.0,10.0,66,0.00,,,0.66,WUHU216DAVISVP2,2013-04-13 02:08:00,
2013-04-12 22:13:00,48.1,37.8,29.81,WNW,289,2.0,10.0,67,0.00,,,0.66,WUHU216DAVISVP2,2013-04-13 02:13:00,
2013-04-12 22:18:00,48.1,37.4,29.80,WNW,300,1.0,10.0,66,0.00,,,0.66,WUHU216DAVISVP2,2013-04-13 02:18:00,
2013-04-12 22:23:00,48.1,37.0,29.80,SW,228,3.0,10.0,65,0.00,,,0.66,WUHU216DAVISVP2,2013-04-13 02:23:00,
2013-04-12 22:28:00,48.0,37.7,29.80,NW,308,4.0,8.0,67,0.00,,,0.66,WUHU216DAVISVP2,2013-04-13 02:28:00,
2013-04-12 22:33:00,48.0,37.3,29.81,NW,316,6.0,9.0,66,0.00,,,0.66,WUHU216DAVISVP2,2013-04-13 02:33:00,
2013-04-12 22:38:00,48.0,37.3,29.81,WNW,289,1.0,9.0,66,0.00,,,0.66,WUHU216DAVISVP2,2013-04-13 02:38:00,
2013-04-12 22:43:00,47.9,37.2,29.80,West,259,2.0,9.0,66,0.00,,,0.66,WUHU216DAVISVP2,2013-04-13 02:43:00,
2013-04-12 22:48:00,47.9,37.2,29.81,WSW,257,2.0,9.0,66,0.00,,,0.66,WUHU216DAVISVP2,2013-04-13 02:48:00,
2013-04-12 22:53:00,47.8,37.1,29.80,West,261,0.0,8.0,66,0.00,,,0.66,WUHU216DAVISVP2,2013-04-13 02:53:00,
2013-04-12 22:58:00,47.8,37.5,29.80,WSW,249,0.0,8.0,67,0.00,,,0.66,WUHU216DAVISVP2,2013-04-13 02:58:00,
2013-04-12 23:03:00,47.7,37.0,29.81,WNW,285,0.0,6.0,66,0.00,,,0.66,WUHU216DAVISVP2,2013-04-13 03:03:00,
2013-04-12 23:08:00,47.7,37.8,29.81,WNW,285,1.0,6.0,68,0.00,,,0.66,WUHU216DAVISVP2,2013-04-13 03:08:00,
2013-04-12 23:13:00,47.6,37.6,29.80,WNW,285,1.0,6.0,68,0.00,,,0.66,WUHU216DAVISVP2,2013-04-13 03:13:00,
2013-04-12 23:18:00,47.6,37.6,29.80,WNW,285,1.0,5.0,68,0.00,,,0.66,WUHU216DAVISVP2,2013-04-13 03:18:00,
2013-04-12 23:23:00,47.6,37.3,29.80,WNW,296,0.0,4.0,67,0.00,,,0.66,WUHU216DAVISVP2,2013-04-13 03:23:00,
2013-04-12 23:28:00,47.6,37.7,29.80,West,263,0.0,4.0,68,0.00,,,0.66,WUHU216DAVISVP2,2013-04-13 03:28:00,
2013-04-12 23:33:00,47.6,37.3,29.80,WSW,253,0.0,5.0,67,0.00,,,0.66,WUHU216DAVISVP2,2013-04-13 03:33:00,
2013-04-12 23:38:00,47.6,37.7,29.80,West,272,1.0,7.0,68,0.00,,,0.66,WUHU216DAVISVP2,2013-04-13 03:38:00,
2013-04-12 23:43:00,47.6,37.3,29.81,WSW,243,0.0,7.0,67,0.00,,,0.66,WUHU216DAVISVP2,2013-04-13 03:43:00,
2013-04-12 23:48:00,47.6,37.6,29.81,NW,325,0.0,7.0,68,0.00,,,0.66,WUHU216DAVISVP2,2013-04-13 03:48:00,
2013-04-12 23:53:00,47.7,37.3,29.81,West,276,4.0,7.0,67,0.00,,,0.66,WUHU216DAVISVP2,2013-04-13 03:53:00,
2013-04-12 23:58:00,47.7,37.3,29.81,WNW,286,2.0,6.0,67,0.00,,,0.66,WUHU216DAVISVP2,2013-04-13 03:58:00,